This is the latest recevied weather packets stored in our database for station/object KJ4YLO. If no packets are shown the sender has not sent any weather packets the latest 10 day(s).
| Time | Temp. | Humidity | Pressure | Rain* | Wind** | Luminosity | Snow |
|---|---|---|---|---|---|---|---|
| 1778013294 | 26.11° C | 35% | 1015.5 hPa | 0 mm | - | 583 W/m² | - |
| 1778012990 | 26.67° C | 36% | 1015.5 hPa | 0 mm | - | 166 W/m² | - |
| 1778012688 | 25.56° C | 35% | 1015.5 hPa | 0 mm | - | 286 W/m² | - |
| 1778012383 | 25.56° C | 36% | 1015.1 hPa | 0 mm | - | 634 W/m² | - |
| 1778012080 | 25.56° C | 36% | 1015.5 hPa | 0 mm | - | 557 W/m² | - |
| 1778011778 | 25° C | 35% | 1015.9 hPa | 0 mm | - | 542 W/m² | - |
| 1778011476 | 25° C | 35% | 1015.5 hPa | 0 mm | - | 282 W/m² | - |
| 1778011171 | 25.56° C | 39% | 1015.9 hPa | 0 mm | - | 242 W/m² | - |
| 1778010868 | 25° C | 34% | 1015.5 hPa | 0 mm | - | 448 W/m² | - |
| 1778010566 | 26.67° C | 34% | 1015.9 hPa | 0 mm | - | 296 W/m² | - |
| 1778010263 | 25.56° C | 36% | 1015.9 hPa | 0 mm | - | 449 W/m² | - |
| 1778009963 | 25° C | 33% | 1015.9 hPa | 0 mm | - | 491 W/m² | - |
| 1778009661 | 25° C | 38% | 1016.3 hPa | 0 mm | - | 360 W/m² | - |
| 1778009359 | 25.56° C | 36% | 1016.3 hPa | 0 mm | - | 378 W/m² | - |
| 1778009057 | 26.11° C | 32% | 1016.3 hPa | 0 mm | - | 335 W/m² | - |
| 1778008754 | 25.56° C | 34% | 1016.6 hPa | 0 mm | - | 593 W/m² | - |
| 1778008453 | 26.67° C | 33% | 1016.6 hPa | 0 mm | - | 575 W/m² | - |
| 1778008149 | 26.11° C | 35% | 1016.9 hPa | 0 mm | - | 682 W/m² | - |
| 1778007844 | 26.11° C | 31% | 1016.6 hPa | 0 mm | - | 700 W/m² | - |
| 1778007540 | 25° C | 35% | 1016.9 hPa | 0 mm | - | 511 W/m² | - |
| 1778007237 | 26.11° C | 35% | 1016.9 hPa | 0 mm | - | 558 W/m² | - |
| 1778006933 | 25.56° C | 33% | 1017.3 hPa | 0 mm | - | 596 W/m² | - |
| 1778006630 | 25.56° C | 35% | 1016.6 hPa | 0 mm | - | 686 W/m² | - |
| 1778006327 | 26.67° C | 35% | 1016.9 hPa | 0 mm | - | 672 W/m² | - |
| 1778006024 | 25.56° C | 36% | 1016.9 hPa | 0 mm | - | 598 W/m² | - |
* Rain latest hour (hover to see other rain measurements)
** Current wind speed in m/s (hover to see current wind gust speed)